Wind_Speed
21 20 19 18 18 18 19 20 20 17 15 16 17 16 15 17 19 18 17 16 14 12 11 10 10 11 11 10 10 9 9 9 9 9 8 9 10 10 10 10 10 10 10 9
21 20 19 19 19 20 20 20 19 19 17 16 17 17 16 17 17 16 15 15 14 12 11 11 11 11 12 11 11 10 10 9 9 10 10 10 10 11 11 11 11 11 10 10
21 19 20 21 21 20 20 20 19 19 18 18 19 19 17 18 17 16 15 14 13 11 11 12 12 12 12 12 11 11 11 11 10 11 11 11 12 11 11 11 11 11 11 11
21 21 22 21 21 20 21 20 19 19 19 20 21 21 19 19 18 17 17 15 13 12 12 13 13 13 13 12 12 11 11 12 12 11 11 11 11 11 11 11 11 12 12 11
21 21 22 22 21 20 20 20 20 20 20 20 21 22 19 19 19 18 17 16 16 15 14 13 14 14 14 13 12 12 12 12 12 12 11 11 11 12 12 12 12 12 12 12
21 22 23 22 21 21 21 21 21 21 22 23 21 23 21 19 19 19 17 17 17 17 16 15 14 15 14 14 14 14 13 13 12 12 12 12 13 13 13 13 14 13 13 13
21 22 23 23 23 22 21 21 21 22 23 22 20 22 21 18 19 18 18 17 17 17 18 17 16 15 15 16 16 15 15 14 14 14 14 14 14 14 14 14 14 14 14 14
22 22 22 22 23 22 22 22 23 23 22 21 21 23 20 19 20 19 18 17 17 17 18 19 17 16 16 16 17 17 16 16 15 15 15 15 15 16 16 16 16 15 15 15
21 20 20 20 20 21 22 23 22 23 22 22 21 21 19 19 19 19 19 18 17 18 19 19 18 18 18 18 18 18 17 17 17 17 16 16 16 16 17 17 17 16 16 15
20 20 20 20 21 22 22 23 23 23 23 24 23 22 20 19 18 19 18 18 18 18 19 19 20 20 20 20 19 18 18 18 18 18 17 17 16 16 17 17 17 17 16 16
21 22 20 21 23 23 23 23 23 23 24 24 24 22 20 20 19 18 18 18 19 20 21 21 21 21 20 20 19 19 19 19 19 19 18 18 17 17 17 17 17 17 17 17
22 22 22 23 23 23 23 23 23 24 24 25 25 22 20 20 20 20 19 19 19 19 20 21 20 21 21 21 20 19 20 20 20 20 19 19 19 18 18 17 17 18 18 18
22 23 23 24 24 24 24 24 25 25 25 25 25 23 21 21 21 21 20 19 20 20 21 21 22 21 21 21 21 21 21 21 21 21 20 21 20 19 19 19 19 19 19 19
24 25 25 25 24 25 26 26 26 27 27 27 27 25 24 24 23 23 22 22 21 21 22 23 22 22 22 22 22 21 21 22 21 21 21 21 21 20 21 20 20 20 20 20
25 26 26 25 25 26 28 28 28 27 28 28 27 27 25 26 25 24 22 22 21 22 22 23 22 22 23 23 23 23 23 23 22 22 22 22 21 21 22 22 22 21 22 22
26 27 26 26 26 27 27 27 28 28 28 29 29 28 28 28 26 25 24 23 23 23 23 24 23 23 23 24 23 24 24 24 23 23 23 23 23 23 23 23 23 23 23 23
27 27 27 27 27 27 27 26 27 28 29 29 29 28 28 28 27 26 25 25 25 25 25 24 24 24 24 23 24 24 24 24 24 24 24 24 24 24 24 24 24 24 24 24
27 27 28 27 27 29 27 26 26 28 28 29 29 28 29 30 28 28 27 27 27 26 25 25 25 24 24 25 25 25 25 25 25 25 25 25 25 25 25 25 25 25 25 24
27 26 25 26 27 28 27 26 26 27 28 28 29 29 29 29 30 30 29 29 28 27 26 26 25 24 25 24 24 25 25 25 25 25 25 26 26 26 26 26 26 26 26 25
26 25 24 25 26 28 27 27 27 28 29 28 28 29 29 29 30 30 30 30 29 28 27 28 27 26 26 26 26 27 26 26 26 25 25 26 26 26 26 26 26 26 26 26
25 26 26 26 27 28 27 26 27 29 29 29 29 30 30 30 29 30 30 29 29 29 28 29 28 28 27 26 27 27 26 26 27 27 27 26 26 26 26 26 26 26 25 25
25 26 27 27 28 28 28 28 28 29 28 28 29 30 31 31 31 30 30 30 30 29 29 30 30 28 27 27 27 27 27 26 26 26 26 25 25 25 25 25 25 25 25 25
26 26 26 27 27 28 29 28 28 29 29 29 29 29 30 31 31 31 31 29 30 30 30 29 29 28 28 27 27 26 26 27 27 26 26 26 25 24 24 25 25 26 25 25
27 28 28 27 27 28 28 28 28 28 28 29 28 27 28 29 30 31 31 31 31 30 30 30 29 28 28 27 27 27 27 27 27 27 27 27 26 25 25 26 26 26 26 26
27 28 29 29 28 28 28 28 28 28 28 27 26 27 27 27 28 28 30 31 30 30 29 29 29 29 29 28 27 27 27 27 27 26 26 26 25 25 25 25 25 26 27 27
27 28 28 29 28 28 27 27 27 28 27 26 26 26 26 27 28 28 29 30 30 30 29 28 29 29 29 28 28 27 27 27 26 26 26 25 25 25 26 25 26 26 26 27
Wind_Direction
229 229 228 230 234 236 237 238 239 238 239 245 252 257 259 270 274 280 279 283 285 290 294 296 298 297 296 294 293 293 297 298 294 294 295 296 298 301 304 306 306 305 305 303
231 230 228 227 230 233 237 240 240 238 238 246 253 255 259 266 271 275 277 280 282 284 290 293 293 295 296 292 289 291 290 293 291 290 288 289 291 297 301 301 300 302 304 303
233 228 226 227 228 230 236 240 241 234 234 244 252 253 256 260 265 272 275 278 281 285 290 291 290 292 293 290 289 288 288 288 291 293 290 289 287 292 295 298 298 298 299 300
230 226 226 228 228 232 238 241 241 236 239 242 248 253 250 253 259 265 272 279 278 284 292 292 291 291 292 292 290 287 287 287 286 288 288 291 293 294 295 295 296 296 295 295
229 227 229 230 229 232 239 239 240 240 242 242 243 251 246 246 254 260 268 273 274 280 284 287 289 289 288 288 288 286 285 287 287 286 288 289 290 292 291 290 291 293 293 292
228 227 229 230 230 233 237 236 238 242 243 243 239 246 247 246 254 260 266 269 272 278 283 283 284 283 282 283 283 282 283 286 287 286 287 288 288 289 288 287 287 289 287 287
228 226 228 229 229 231 235 238 242 244 242 243 242 247 251 253 255 259 262 266 269 275 280 280 277 280 281 281 282 281 283 283 283 284 284 285 285 285 285 285 286 286 284 283
231 227 228 231 233 233 235 239 243 247 247 247 246 250 253 253 252 255 262 267 267 268 271 276 276 275 276 280 281 281 280 278 279 281 282 283 284 283 282 281 283 284 283 282
234 230 229 231 233 235 236 240 243 247 251 251 248 250 253 252 253 256 259 261 266 267 269 270 269 273 274 277 279 278 277 276 277 278 280 283 284 283 281 280 281 281 281 281
237 233 228 229 233 235 236 238 240 244 249 248 248 250 253 251 252 253 256 259 265 269 269 270 270 270 272 274 275 275 272 273 274 275 277 280 281 283 282 279 279 280 279 280
239 237 231 231 232 233 233 235 240 245 248 249 250 252 255 259 258 258 261 264 265 266 268 271 272 270 269 272 271 271 273 275 273 273 274 275 277 280 282 279 278 278 278 279
237 238 233 232 233 234 236 236 238 242 246 250 253 256 256 260 260 261 265 263 265 265 264 266 270 269 270 271 269 270 271 273 273 272 272 272 273 276 278 278 276 276 277 279
234 238 237 234 233 234 235 236 239 243 247 248 251 256 257 259 261 262 266 266 264 268 267 268 272 271 268 268 270 270 269 270 271 272 270 272 274 274 274 274 274 274 274 276
236 238 240 241 238 237 238 239 242 243 246 248 250 254 257 259 261 264 269 271 267 269 268 268 273 271 267 266 269 268 268 269 271 271 271 272 273 273 273 273 272 273 274 275
238 240 242 242 241 240 241 242 242 244 246 247 250 253 255 259 261 265 266 268 267 270 271 271 271 272 269 266 267 267 268 268 270 271 272 272 272 273 274 274 274 275 275 275
240 242 242 242 243 243 244 245 247 247 247 249 250 252 254 256 261 264 265 266 269 271 272 273 270 268 267 265 264 265 266 267 268 270 272 272 272 272 272 273 274 275 276 276
242 244 244 243 244 245 246 247 247 248 249 251 253 254 254 256 257 261 264 267 269 271 271 272 269 266 265 263 264 264 264 265 267 269 270 270 270 271 270 271 272 273 274 276
244 245 246 245 243 243 247 248 247 247 249 251 252 253 255 257 259 261 263 266 268 269 270 271 270 267 264 264 264 265 264 265 268 269 270 269 269 270 269 270 271 271 273 275
247 248 249 246 246 245 244 246 246 247 250 253 254 255 256 256 258 259 261 263 266 268 267 268 270 269 267 267 266 267 267 266 268 269 270 269 269 269 269 270 270 271 272 272
247 246 248 248 246 244 245 247 247 248 250 252 254 255 256 259 260 260 261 261 264 267 267 267 269 269 269 268 266 267 266 265 266 268 270 270 270 270 270 269 269 271 270 270
245 247 247 248 249 250 248 248 250 252 255 256 256 257 258 259 262 262 262 263 265 266 267 269 270 271 269 268 269 268 268 267 268 269 270 270 270 268 267 267 268 269 268 269
249 249 248 248 250 251 251 251 253 256 258 260 260 259 259 259 261 262 263 264 266 269 270 270 270 269 269 269 269 268 268 268 268 269 270 269 269 267 265 265 266 267 266 268
251 250 250 251 253 255 254 255 256 256 258 260 259 260 259 260 260 261 262 264 266 268 270 270 268 267 268 268 268 269 269 267 269 270 271 270 269 268 267 266 266 266 265 266
251 252 251 252 254 257 258 258 259 257 259 261 261 261 262 262 261 261 262 263 266 268 269 269 269 268 268 267 266 267 268 268 268 269 271 272 270 269 269 268 266 264 264 265
251 251 252 253 254 256 259 262 261 261 263 261 262 262 263 264 266 267 266 264 265 267 270 270 268 266 265 266 265 266 268 269 267 267 270 271 271 270 270 268 268 267 266 266
250 250 252 254 255 257 258 259 261 262 262 260 261 263 264 265 266 266 267 265 264 265 266 267 266 265 265 265 265 265 267 268 268 268 269 270 270 271 270 268 269 268 268 268
Height
5859 5862 5864 5867 5868 5871 5872 5873 5875 5876 5876 5876 5876 5877 5878 5878 5878 5878 5878 5879 5880 5881 5881 5880 5880 5879 5879 5878 5878 5877 5877 5877 5876 5875 5874 5874 5873 5873 5872 5871 5870 5870 5869 5868
5854 5857 5860 5861 5863 5865 5867 5868 5870 5872 5872 5872 5872 5873 5874 5875 5874 5874 5875 5876 5876 5877 5877 5877 5877 5876 5876 5876 5875 5875 5875 5874 5873 5873 5872 5872 5871 5870 5869 5868 5868 5867 5866 5865
5850 5854 5854 5856 5857 5859 5862 5864 5866 5867 5867 5867 5868 5869 5870 5871 5871 5871 5872 5873 5873 5874 5874 5874 5874 5874 5873 5873 5873 5872 5872 5871 5871 5870 5869 5869 5868 5867 5866 5866 5865 5864 5864 5863
5844 5848 5849 5850 5853 5855 5858 5860 5861 5861 5862 5863 5864 5864 5867 5867 5868 5868 5869 5869 5870 5871 5871 5871 5871 5870 5870 5870 5869 5869 5869 5868 5868 5867 5867 5866 5865 5864 5864 5863 5862 5862 5861 5860
5840 5842 5844 5846 5849 5851 5854 5856 5856 5857 5858 5859 5860 5859 5862 5863 5864 5865 5865 5865 5866 5868 5868 5868 5867 5867 5866 5866 5866 5865 5865 5865 5865 5864 5864 5863 5862 5861 5861 5860 5859 5859 5858 5857
5834 5836 5838 5841 5844 5847 5849 5851 5851 5852 5853 5854 5856 5856 5857 5859 5860 5860 5861 5861 5862 5863 5863 5863 5863 5863 5862 5862 5862 5862 5862 5862 5861 5861 5860 5860 5859 5858 5857 5857 5856 5855 5855 5854
5829 5831 5834 5836 5838 5841 5843 5845 5846 5847 5848 5849 5852 5851 5853 5855 5855 5856 5856 5857 5858 5858 5859 5858 5858 5858 5858 5859 5858 5858 5858 5858 5857 5857 5856 5856 5855 5854 5854 5853 5852 5852 5851 5850
5823 5827 5829 5831 5834 5836 5838 5840 5842 5842 5843 5845 5846 5846 5849 5849 5849 5850 5852 5852 5852 5853 5853 5853 5854 5854 5854 5854 5854 5854 5853 5853 5853 5853 5852 5852 5851 5850 5849 5849 5848 5848 5847 5846
5818 5822 5825 5827 5829 5831 5833 5834 5836 5838 5838 5839 5840 5841 5843 5843 5843 5844 5845 5846 5846 5846 5847 5848 5849 5849 5849 5849 5849 5849 5849 5848 5848 5848 5847 5847 5846 5845 5845 5844 5844 5843 5843 5842
5813 5817 5820 5823 5825 5826 5828 5830 5831 5832 5832 5832 5834 5836 5838 5838 5838 5838 5839 5840 5840 5841 5842 5842 5843 5843 5844 5844 5844 5844 5844 5843 5843 5842 5842 5842 5841 5840 5840 5839 5839 5839 5838 5838
5808 5812 5815 5817 5818 5820 5823 5824 5825 5826 5827 5827 5828 5833 5833 5832 5833 5833 5833 5834 5835 5835 5835 5836 5836 5837 5837 5838 5838 5838 5838 5838 5838 5837 5837 5836 5836 5835 5835 5834 5834 5834 5833 5833
5803 5806 5808 5811 5813 5815 5816 5817 5819 5820 5821 5822 5823 5828 5827 5827 5827 5827 5828 5829 5829 5828 5829 5830 5830 5830 5831 5831 5832 5832 5832 5832 5832 5831 5831 5831 5830 5830 5829 5829 5829 5828 5828 5828
5797 5799 5802 5804 5808 5809 5809 5811 5812 5814 5816 5817 5817 5822 5821 5821 5821 5822 5822 5822 5823 5822 5823 5823 5824 5824 5825 5825 5825 5825 5826 5826 5826 5825 5825 5825 5824 5824 5823 5823 5823 5823 5822 5821
5791 5793 5796 5798 5800 5802 5803 5805 5807 5808 5809 5810 5812 5814 5815 5815 5815 5816 5816 5817 5817 5817 5817 5817 5818 5818 5818 5818 5818 5818 5819 5819 5819 5819 5819 5818 5818 5818 5817 5817 5817 5817 5816 5816
5785 5787 5789 5791 5793 5795 5796 5799 5800 5801 5802 5804 5806 5807 5808 5808 5809 5810 5810 5810 5810 5811 5811 5811 5811 5811 5811 5811 5811 5812 5812 5813 5813 5812 5812 5812 5811 5811 5811 5811 5810 5810 5810 5810
5778 5780 5782 5784 5786 5787 5789 5791 5792 5794 5795 5796 5798 5800 5801 5801 5802 5803 5803 5804 5804 5804 5805 5805 5804 5804 5805 5805 5805 5805 5805 5806 5806 5805 5805 5805 5804 5804 5804 5804 5803 5803 5803 5803
5771 5773 5775 5777 5779 5780 5782 5784 5785 5787 5788 5790 5791 5794 5794 5795 5795 5796 5796 5797 5797 5797 5798 5798 5798 5798 5798 5797 5798 5798 5798 5798 5798 5798 5797 5797 5796 5796 5796 5796 5796 5796 5796 5796
5764 5765 5767 5769 5772 5773 5777 5777 5778 5779 5781 5782 5784 5786 5787 5788 5788 5789 5790 5790 5790 5790 5790 5790 5790 5789 5790 5790 5790 5790 5790 5790 5790 5790 5790 5789 5789 5789 5789 5789 5789 5789 5789 5789
5757 5758 5760 5761 5763 5765 5768 5769 5771 5772 5773 5775 5777 5778 5779 5780 5780 5781 5782 5783 5783 5783 5783 5783 5783 5783 5783 5782 5782 5782 5782 5783 5783 5783 5782 5782 5781 5781 5781 5781 5781 5782 5782 5781
5749 5751 5753 5754 5755 5757 5761 5763 5763 5765 5765 5768 5769 5770 5771 5772 5774 5775 5775 5775 5776 5776 5775 5776 5776 5776 5776 5775 5775 5774 5774 5775 5775 5775 5775 5774 5773 5773 5773 5773 5773 5773 5773 5773
5742 5744 5745 5747 5748 5750 5753 5754 5756 5758 5759 5760 5761 5762 5763 5765 5766 5767 5767 5767 5768 5768 5768 5768 5768 5768 5767 5767 5767 5767 5767 5767 5767 5767 5766 5766 5766 5765 5765 5765 5765 5765 5765 5765
5735 5736 5738 5740 5741 5745 5745 5747 5749 5750 5751 5752 5753 5754 5755 5756 5757 5757 5758 5759 5759 5759 5760 5760 5760 5760 5760 5759 5759 5760 5760 5760 5759 5759 5759 5758 5757 5757 5757 5758 5758 5758 5758 5758
5728 5730 5731 5733 5736 5737 5738 5739 5740 5742 5743 5744 5745 5746 5747 5748 5748 5748 5749 5750 5750 5751 5751 5751 5751 5751 5751 5751 5751 5752 5752 5752 5752 5751 5751 5750 5750 5749 5750 5750 5751 5751 5751 5751
5721 5722 5724 5726 5727 5728 5730 5731 5732 5733 5734 5736 5737 5738 5739 5739 5739 5740 5740 5741 5741 5742 5743 5743 5743 5743 5743 5743 5743 5744 5744 5744 5744 5744 5744 5743 5743 5743 5743 5743 5743 5743 5743 5744
5713 5715 5716 5718 5720 5721 5722 5723 5724 5725 5726 5727 5728 5729 5730 5731 5731 5731 5732 5732 5733 5733 5734 5734 5735 5735 5735 5735 5735 5735 5735 5736 5736 5736 5736 5736 5736 5736 5736 5735 5735 5735 5736 5736
5705 5707 5708 5710 5712 5714 5715 5716 5717 5718 5719 5719 5720 5721 5722 5722 5723 5723 5724 5724 5724 5725 5725 5726 5726 5726 5727 5727 5727 5727 5727 5728 5728 5728 5728 5728 5728 5728 5728 5728 5728 5727 5727 5728